Hourly Data Report for September 08, 2004

SHERBROOKE A
QUEBEC

45°26'00.000" N
71°41'00.000" W
241.40 m
7028124
71610
YSC

Download Data

Hourly Data (September 2004)
Hourly Data Report for September 8, 2004
TIME
LST
Temp Definition
°C
Dew Point Definition
°C
Rel Hum Definition
%
Precip. Amount Definition
mm

Wind Dir Definition
10's deg

Wind Spd Definition
km/h
Visibility Definition
km
Stn Press Definition
kPa
Hmdx Definition


Wind Chill Definition


Weather Definition


00:00 16.6 15.1 91     0 15.0 98.99     Rain
01:00 16.3 15.2 93     0 15.0 99.02     Rain
02:00 16.2 15.2 94   21 6 15.0 99.12     Rain
03:00 16.0 15.2 95   23 4 15.0 99.14     Rain
04:00 15.8 14.9 94   24 4 15.0 99.19      
05:00 15.6 14.8 95   21 9 15.0 99.26     Rain
06:00 15.4 14.6 95   28 6 8.0 99.33      
07:00 16.0 15.2 95     0 0.4 99.37     Fog
08:00 16.7 15.5 93     0 16.1 99.44     Mostly Cloudy
09:00 17.5 15.0 85   4 9 24.1 99.47     Mostly Cloudy
10:00 19.3 14.5 74   7 11 24.1 99.47     Mostly Cloudy
11:00 20.8 14.3 66   9 11 24.1 99.47     Mostly Cloudy
12:00 21.1 13.3 61   3 6 24.1 99.46     Mostly Cloudy
13:00 21.1 12.4 58   12 4 24.1 99.45     Mostly Cloudy
14:00 20.5 15.0 71   33 9 24.1 99.43     Mostly Cloudy
15:00 19.5 14.6 73   34 7 24.1 99.43     Mostly Cloudy
16:00 18.4 14.2 77   33 4 24.1 99.45     Cloudy
17:00 18.0 13.8 76   6 6 15.0 99.47      
18:00 17.0 14.1 83     0 15.0 99.51      
19:00 16.4 14.0 86   9 7 15.0 99.56      
20:00 16.1 13.8 86   9 6 15.0 99.56      
21:00 15.6 13.3 86   4 7 15.0 99.53      
22:00 15.3 12.6 84   6 7 15.0 99.52      
23:00 15.1 12.8 86   8 7 15.0 99.51      

Notes on Data Quality.

Legend

  • E = Estimated
  • M = Missing
  • NA = Not Available*
  • [empty] = Indicates an unobserved value
Date modified: